STARLINK-1281 (45370 NORAD) Tracking and Keplerian Element Data

This shows tracking and keplerian element data for the satellite.

Feedback or suggestion? Click here.




ElementValue
Catalog45370
NameSTARLINK-1281
Epoch Orbit175
Epoch Day188.91667824
Epoch Year2020
RAAN107.1872
Inclination52.998
Eccentricity0.0001602
Argument of Perigee86.0832
Mean Anonmoly84.4076
Mean Motion15.05608124
Decay Rate-0.00031434
L11 45370U 20019L 20188.91667824 -.00031434 00000-0 -21461-2 0 9996
L22 45370 52.9980 107.1872 0001602 86.0832 84.4076 15.05608124 1750

Live tracking and technical data element details for STARLINK-1281 (NORAD 45370). STARLINK-1281 can be tracked NOW for your location showing map with azimuth and elevation plus other details from your city location.

Track the satellite on the map from your city or location and see movement details for azimuth, elevation, latitude, longitude, range, height, and movement on the map or in text.







IsCatalogInMostPopularTable: catalog: 45370, numindb: 32
Update: records affected: 1



GetName: 45370 STARLINK-1281

Hit Count: updated at: Wed, 08 Jul 2020 03:36:58 GMT